Temp
49 42 36 38 41 42 39 35 34 43 49 41 40 41 46 51 53 50 50 51 52 54 56 57 58 57 56 57 57 58 58 58 57 54 52 53 56 60 64 64 65 65 68 69
43 36 42 45 45 42 40 35 34 41 45 42 39 40 46 50 51 49 49 50 52 53 54 57 56 54 54 55 57 58 58 58 57 55 53 52 52 53 54 62 63 65 64 65
38 41 47 45 41 39 37 35 33 33 39 42 39 34 44 50 51 52 53 53 53 52 52 53 54 52 53 54 54 55 57 57 56 55 54 53 52 53 54 58 62 63 64 63
41 45 43 40 40 39 30 41 38 35 31 22 38 18 37 44 47 49 50 50 51 52 52 52 53 53 52 52 51 52 53 54 55 54 52 50 49 48 52 54 56 61 64 63
35 38 36 38 39 41 34 41 36 36 31 28 30 22 33 45 42 45 46 48 48 50 50 50 50 51 50 50 49 49 50 50 52 52 51 50 48 49 51 53 54 56 62 63
39 42 40 39 42 42 43 37 38 34 31 14 30 27 28 37 41 43 45 46 47 47 48 48 49 48 46 47 46 46 45 46 48 49 49 48 47 48 48 50 51 56 58 61
37 37 40 42 35 39 38 29 17 15 17 17 35 29 32 43 43 44 44 44 45 46 44 44 43 42 42 41 41 42 43 42 44 45 46 47 47 47 47 48 51 54 58 60
26 24 36 40 34 29 32 27 13 5 11 18 32 20 32 45 46 47 47 45 44 43 42 41 40 39 38 38 38 39 40 40 42 43 44 46 47 47 48 49 51 56 58 59
26 29 37 39 40 37 29 22 33 14 17 15 23 33 42 45 44 44 42 43 40 39 39 37 37 36 35 35 35 36 37 39 41 42 43 44 45 47 47 48 51 56 59 58
30 21 34 36 37 37 31 36 19 19 5 5 20 26 28 36 39 39 38 38 37 38 35 34 34 33 33 34 35 35 36 36 39 41 43 44 45 46 47 47 48 52 48 49
33 27 28 32 29 28 24 21 22 24 21 9 9 19 38 39 39 35 36 37 36 34 33 32 32 32 32 33 32 32 33 35 36 40 42 43 44 45 45 44 45 44 44 42
32 28 19 27 36 37 33 28 26 12 14 21 17 19 42 43 43 39 36 36 36 33 33 31 30 30 30 30 31 31 32 34 36 39 42 42 43 42 39 36 36 37 34 36
32 22 14 23 28 32 28 33 33 20 18 15 7 18 46 45 40 38 35 35 33 32 30 29 28 28 28 28 29 29 32 34 37 39 40 37 35 34 33 33 34 34 34 34
38 25 18 19 24 27 26 29 31 19 9 11 19 21 34 34 31 34 34 32 33 31 28 28 27 27 27 28 28 29 30 34 35 36 35 33 33 33 33 33 34 34 34 34
33 16 19 21 25 25 25 25 27 21 20 14 25 16 27 30 31 26 34 32 31 29 27 25 25 26 26 27 27 28 29 30 33 33 32 32 32 33 33 32 32 33 33 33
33 18 24 16 24 25 23 26 26 27 26 25 26 25 37 38 34 31 32 30 29 28 26 26 25 26 26 26 26 27 27 28 30 30 30 31 31 31 31 31 31 31 31 31
27 21 14 14 24 23 14 25 27 22 23 21 16 26 30 30 28 30 29 29 28 27 26 25 24 25 26 26 27 26 27 28 28 28 29 30 30 30 30 30 30 30 30 30
22 19 18 11 14 10 31 36 34 28 28 29 26 29 32 27 27 31 24 29 29 27 26 25 24 25 26 27 28 28 28 28 28 28 28 29 29 29 30 29 29 29 30 29
30 23 11 6 5 24 29 32 30 24 26 37 33 35 36 36 36 31 24 31 29 28 27 27 26 26 27 27 28 28 28 28 28 27 28 28 29 29 29 28 28 29 29 29
31 27 15 5 4 7 29 33 36 37 21 39 39 36 34 35 26 24 28 29 30 29 28 27 26 26 26 27 27 27 26 27 27 27 28 29 29 28 28 28 28 28 29 28
18 19 12 9 6 17 31 33 35 19 29 38 38 37 35 30 29 31 27 27 21 20 24 29 21 23 24 28 28 26 25 24 26 27 28 28 28 28 29 28 28 29 28 28
17 14 11 11 8 12 33 30 30 36 34 36 36 36 35 36 33 30 25 23 21 20 22 23 23 22 21 23 26 25 25 26 27 27 27 27 27 28 28 28 28 28 28 27
19 27 21 23 23 34 36 33 36 37 35 34 33 34 36 36 34 33 28 27 26 24 25 24 25 25 24 25 27 25 25 27 27 27 26 26 27 27 28 28 27 27 27 26
26 32 25 26 33 35 34 36 36 36 34 36 35 35 36 35 36 33 32 30 29 27 24 23 23 23 23 24 25 24 25 25 23 23 23 24 24 25 26 28 28 27 26 25
28 30 22 23 32 34 37 35 36 35 35 35 35 35 35 35 33 32 31 30 29 28 24 22 20 21 20 21 21 19 22 21 21 20 22 23 23 22 23 24 23 24 24 26
27 27 26 30 35 38 37 35 35 34 34 33 33 32 34 34 33 32 30 30 28 24 22 20 19 19 18 16 16 15 15 17 17 20 20 19 20 19 21 21 22 31 31 32
MSLP
1014.52 1015.12 1016.01 1016.67 1016.90 1017.11 1017.02 1016.70 1015.87 1014.83 1014.54 1014.50 1013.36 1012.03 1010.25 1009.50 1009.01 1008.41 1008.50 1008.75 1008.90 1008.99 1008.97 1009.27 1009.35 1009.46 1009.60 1009.64 1009.49 1009.21 1008.97 1008.45 1008.09 1007.89 1007.50 1006.86 1006.22 1005.54 1004.63 1004.34 1003.65 1003.67 1005.03 1005.61
1015.33 1016.13 1016.89 1016.96 1017.04 1017.17 1017.22 1016.99 1016.20 1015.16 1015.29 1015.42 1013.65 1011.79 1009.66 1008.59 1008.31 1008.30 1008.76 1009.13 1009.15 1009.18 1009.24 1009.27 1009.19 1009.28 1009.45 1009.61 1009.54 1009.19 1008.68 1008.22 1007.93 1007.71 1007.18 1006.84 1006.22 1005.47 1005.45 1004.62 1002.40 1003.45 1004.12 1004.88
1015.86 1016.93 1017.05 1017.07 1017.09 1017.29 1017.33 1017.21 1017.26 1017.09 1016.15 1014.75 1014.25 1011.93 1009.77 1008.55 1008.45 1008.51 1008.58 1008.83 1009.04 1009.27 1009.46 1009.47 1009.45 1009.45 1009.42 1009.26 1009.18 1008.97 1008.33 1007.69 1007.35 1007.18 1006.80 1006.35 1005.96 1005.29 1004.65 1004.07 1003.75 1002.34 1002.63 1003.82
1016.83 1017.31 1017.41 1017.47 1017.39 1017.91 1017.64 1017.41 1017.75 1017.81 1017.31 1016.63 1015.40 1014.09 1011.04 1009.31 1008.66 1008.73 1008.74 1009.17 1009.38 1009.64 1009.75 1009.85 1009.64 1009.43 1009.36 1009.12 1008.96 1008.68 1008.31 1007.63 1007.01 1006.81 1006.61 1006.25 1005.83 1005.07 1004.42 1004.03 1003.62 1002.40 1000.70 1002.04
1017.61 1017.71 1017.79 1017.71 1017.93 1018.15 1018.04 1017.76 1017.94 1017.90 1017.62 1017.46 1015.69 1015.02 1011.37 1009.91 1009.33 1009.15 1009.44 1009.82 1010.00 1010.26 1010.46 1010.07 1009.72 1009.32 1009.22 1009.03 1008.74 1008.37 1007.80 1007.36 1006.92 1006.34 1006.08 1005.79 1005.25 1004.63 1003.93 1003.60 1003.14 1003.08 1000.74 1000.12
1017.92 1018.52 1018.51 1018.43 1018.31 1018.19 1018.28 1017.94 1017.61 1017.87 1018.21 1017.67 1015.95 1015.21 1011.69 1010.38 1009.93 1009.77 1010.01 1010.24 1010.52 1010.63 1010.38 1010.07 1009.66 1009.54 1009.15 1008.87 1008.53 1007.99 1007.43 1006.84 1006.52 1006.05 1005.56 1005.24 1004.81 1004.28 1003.70 1003.10 1002.64 1001.58 1001.41 999.64
1018.08 1018.47 1018.82 1019.02 1018.72 1018.56 1018.65 1019.12 1019.78 1019.61 1019.15 1017.66 1016.26 1015.16 1011.70 1010.21 1009.95 1010.19 1010.33 1010.62 1010.90 1011.00 1010.62 1010.12 1009.78 1009.36 1009.06 1008.73 1008.20 1007.63 1006.98 1006.24 1005.87 1005.56 1004.99 1004.54 1004.08 1003.69 1003.14 1002.69 1002.32 1001.68 1000.92 1000.70
1019.32 1019.01 1019.10 1019.43 1019.47 1019.81 1019.93 1020.99 1022.06 1022.42 1021.25 1019.10 1017.00 1014.70 1011.29 1009.90 1009.85 1010.30 1010.91 1011.25 1011.40 1011.28 1011.04 1010.76 1010.35 1009.79 1009.29 1008.71 1008.07 1007.32 1006.49 1005.65 1005.21 1004.77 1004.28 1003.85 1003.33 1002.93 1002.46 1002.08 1001.73 1000.96 1000.09 999.58
1020.30 1019.52 1019.55 1019.97 1019.92 1020.35 1020.68 1021.50 1022.21 1023.02 1022.50 1021.06 1017.25 1013.76 1011.10 1010.43 1010.32 1010.78 1011.48 1011.72 1011.84 1011.69 1011.41 1011.03 1010.50 1010.21 1009.47 1008.70 1007.97 1007.14 1006.11 1005.11 1004.45 1003.91 1003.40 1003.07 1002.76 1002.15 1001.78 1001.38 1001.14 1000.39 999.22 999.32
1021.35 1020.95 1019.80 1020.46 1020.59 1020.81 1021.16 1022.05 1022.86 1023.65 1023.95 1021.97 1017.75 1014.66 1012.16 1011.03 1010.97 1011.58 1011.90 1012.05 1012.05 1011.89 1011.61 1011.33 1010.96 1010.34 1009.49 1008.52 1007.47 1006.53 1005.52 1004.37 1003.59 1002.98 1002.49 1002.18 1001.95 1001.45 1001.04 1000.73 1000.54 1000.24 999.39 999.59
1021.26 1022.45 1020.93 1020.71 1020.57 1020.60 1021.78 1022.26 1023.13 1023.57 1023.93 1023.28 1020.14 1015.12 1011.91 1011.43 1011.67 1011.90 1012.12 1012.28 1012.29 1012.09 1011.84 1011.58 1011.09 1010.37 1009.43 1008.36 1007.25 1006.01 1004.77 1003.60 1002.63 1002.03 1001.59 1001.42 1001.21 1000.77 1000.47 1000.41 1000.45 1000.05 999.58 1000.22
1022.21 1022.71 1022.15 1020.60 1020.23 1020.47 1021.29 1021.68 1022.52 1023.62 1024.15 1023.31 1021.55 1016.48 1012.24 1011.62 1011.69 1012.24 1012.58 1012.72 1012.81 1012.83 1012.25 1011.90 1011.31 1010.41 1009.40 1008.28 1006.96 1005.56 1004.01 1002.36 1001.45 1001.14 1000.86 1000.74 1000.69 1000.50 1000.47 1000.55 1000.53 1000.59 1000.52 1000.97
1022.54 1023.24 1022.95 1021.54 1021.26 1021.08 1021.43 1021.39 1022.21 1023.36 1024.18 1023.70 1022.50 1016.23 1011.88 1011.88 1012.57 1013.16 1013.30 1013.35 1013.27 1012.86 1012.53 1012.09 1011.46 1010.61 1009.65 1008.36 1007.02 1005.52 1003.75 1001.85 1000.73 1000.74 1000.58 1000.78 1000.89 1001.00 1001.06 1001.19 1001.06 1001.00 1001.62 1002.04
1023.01 1023.48 1023.42 1022.48 1021.67 1021.20 1021.41 1021.17 1021.86 1023.04 1024.14 1022.94 1020.00 1016.74 1013.93 1013.65 1013.92 1013.76 1013.97 1014.15 1013.59 1013.38 1013.14 1012.57 1011.82 1010.97 1010.10 1008.82 1007.44 1005.97 1004.40 1002.83 1001.71 1001.14 1001.10 1001.25 1001.46 1001.61 1001.50 1001.81 1001.89 1001.88 1002.37 1002.88
1023.73 1024.07 1023.63 1022.69 1022.00 1021.61 1020.88 1020.79 1021.33 1021.74 1021.74 1021.79 1018.27 1017.88 1015.15 1014.71 1014.75 1014.59 1014.46 1014.26 1013.93 1013.65 1013.36 1013.03 1012.39 1011.47 1010.48 1009.19 1007.97 1006.81 1005.55 1004.22 1003.15 1002.45 1002.12 1002.16 1002.22 1002.23 1002.27 1002.68 1002.90 1003.10 1003.78 1004.39
1023.73 1024.20 1024.06 1022.79 1021.74 1021.19 1020.19 1019.30 1019.42 1020.09 1020.42 1020.20 1019.14 1017.43 1015.14 1014.82 1014.96 1014.81 1014.95 1015.01 1014.65 1014.32 1013.95 1013.54 1013.01 1012.14 1011.06 1009.91 1008.88 1007.76 1006.71 1005.62 1004.72 1003.97 1003.52 1003.45 1003.19 1003.20 1003.45 1003.56 1004.14 1004.75 1005.16 1005.65
1023.84 1024.85 1024.87 1024.08 1022.28 1020.89 1018.68 1016.07 1017.10 1017.50 1017.72 1018.19 1018.13 1015.57 1014.77 1014.70 1015.11 1015.20 1015.64 1015.76 1015.37 1014.97 1014.55 1014.05 1013.50 1012.76 1011.87 1010.69 1009.79 1008.85 1007.86 1006.83 1005.78 1005.65 1004.68 1004.73 1004.58 1004.53 1004.90 1005.12 1005.50 1005.64 1006.70 1007.09
1023.90 1025.18 1025.40 1025.05 1023.09 1020.27 1015.87 1014.74 1014.71 1015.32 1015.61 1015.79 1015.36 1014.63 1014.60 1014.90 1014.92 1015.62 1016.23 1016.19 1015.90 1015.59 1015.21 1014.68 1014.20 1013.48 1012.62 1011.61 1010.57 1009.85 1008.93 1008.25 1007.48 1006.98 1006.73 1006.31 1006.05 1006.07 1006.23 1006.24 1006.80 1007.59 1008.05 1008.59
1024.35 1024.86 1025.85 1026.04 1024.33 1019.13 1014.87 1014.35 1014.13 1014.41 1013.64 1013.14 1013.82 1013.70 1014.00 1014.26 1014.34 1015.53 1016.00 1016.27 1016.35 1016.20 1015.95 1015.45 1014.93 1014.25 1013.41 1012.58 1011.70 1010.89 1010.12 1009.43 1008.95 1008.65 1008.26 1007.97 1007.81 1007.81 1007.67 1008.09 1008.67 1009.05 1009.54 1010.07
1024.70 1024.92 1025.87 1026.47 1024.65 1019.98 1014.94 1013.93 1013.53 1013.67 1013.23 1011.85 1012.28 1012.88 1013.38 1014.13 1014.80 1015.36 1016.01 1016.29 1016.48 1016.49 1016.27 1015.85 1015.38 1014.78 1013.95 1013.43 1012.85 1012.05 1011.48 1010.88 1010.44 1010.18 1009.94 1009.68 1009.47 1009.27 1009.32 1009.70 1010.26 1010.79 1010.99 1011.51
1024.52 1025.14 1025.20 1025.08 1023.62 1018.72 1014.40 1013.85 1013.88 1013.48 1012.25 1011.40 1011.88 1012.37 1013.05 1013.75 1014.45 1015.04 1015.66 1016.14 1016.39 1016.61 1016.51 1016.10 1015.97 1015.48 1014.86 1014.24 1013.72 1013.07 1012.86 1012.51 1012.28 1011.76 1011.35 1011.08 1010.96 1010.85 1011.10 1011.36 1011.71 1012.08 1012.54 1013.06
1021.60 1022.74 1023.17 1023.11 1021.66 1017.23 1013.47 1013.94 1013.30 1011.09 1010.73 1011.15 1011.63 1011.99 1012.63 1013.10 1013.94 1014.79 1015.44 1016.05 1016.51 1016.63 1016.55 1016.45 1016.36 1016.12 1015.55 1014.97 1014.57 1014.34 1013.98 1014.03 1013.57 1013.22 1012.97 1012.82 1012.73 1012.79 1012.87 1012.96 1013.38 1013.66 1013.90 1014.44
1019.67 1018.01 1018.56 1018.17 1015.19 1012.92 1012.28 1011.16 1010.93 1010.89 1011.10 1011.36 1011.77 1012.09 1012.43 1013.03 1013.72 1014.48 1015.18 1015.76 1016.15 1016.53 1016.83 1016.84 1016.72 1016.70 1016.28 1015.79 1015.43 1015.27 1015.30 1014.92 1014.67 1014.43 1014.38 1014.36 1014.29 1014.36 1014.47 1014.53 1014.81 1014.96 1015.23 1015.53
1017.10 1016.33 1016.40 1016.01 1012.14 1011.76 1011.83 1011.19 1010.99 1010.92 1011.18 1011.16 1011.34 1011.83 1012.27 1012.87 1013.38 1014.14 1014.85 1015.48 1015.92 1016.38 1016.87 1017.13 1017.12 1017.15 1017.05 1016.72 1016.42 1016.25 1016.00 1015.75 1015.54 1015.55 1015.59 1015.58 1015.50 1015.56 1015.59 1015.55 1015.72 1016.03 1016.32 1016.60
1015.24 1015.29 1015.03 1013.96 1011.69 1011.22 1010.49 1010.18 1009.99 1010.50 1010.83 1011.35 1011.41 1011.73 1012.21 1012.67 1013.28 1013.94 1014.64 1015.21 1015.69 1016.27 1016.86 1017.23 1017.40 1017.53 1017.59 1017.39 1017.23 1017.08 1016.76 1016.62 1016.64 1016.60 1016.67 1016.73 1016.75 1016.78 1016.84 1016.91 1017.08 1017.22 1017.33 1017.44
1013.63 1013.02 1013.04 1010.76 1009.70 1009.28 1009.14 1009.10 1009.26 1010.24 1010.63 1011.00 1011.47 1011.90 1012.10 1012.51 1013.07 1013.78 1014.43 1014.87 1015.41 1016.10 1016.70 1017.16 1017.44 1017.67 1017.76 1017.79 1017.83 1017.82 1017.29 1017.14 1017.31 1017.44 1017.46 1017.49 1017.55 1017.65 1017.72 1017.82 1017.94 1017.88 1017.96 1018.01
Wind_Speed
2 6 5 5 6 2 5 8 10 14 10 12 10 20 24 16 14 6 5 6 8 6 2 4 4 4 4 7 8 8 10 10 7 5 6 6 8 10 12 12 18 19 19 22
0 4 3 2 2 4 7 9 9 9 14 17 11 22 23 15 7 3 5 7 8 6 7 7 6 5 6 10 13 14 13 12 8 6 6 5 6 7 9 10 13 16 18 18
4 4 1 2 3 5 6 6 8 10 17 12 9 9 8 6 6 3 7 6 5 7 8 7 9 9 11 14 14 17 18 13 11 10 7 7 7 8 11 11 11 18 22 22
4 3 1 3 1 4 4 6 9 13 9 4 8 7 6 3 6 3 6 8 7 8 9 12 16 17 16 14 11 13 17 15 10 9 10 11 11 13 10 10 11 12 26 25
2 1 2 3 3 3 8 11 12 14 6 6 2 1 8 10 7 8 9 8 10 13 17 21 21 18 16 17 16 17 17 17 18 16 12 11 13 11 9 9 14 13 18 26
5 1 2 5 6 4 10 9 10 1 2 1 2 2 8 4 5 7 7 9 14 17 20 20 15 17 20 18 17 16 17 17 17 17 15 15 16 15 12 11 10 9 8 12
4 4 3 2 4 3 7 7 5 7 2 6 6 5 10 11 5 4 8 10 15 20 19 18 20 20 20 19 18 16 17 18 16 17 16 14 15 15 13 12 10 11 8 12
2 5 3 1 3 2 5 3 5 4 4 7 9 8 7 4 4 4 12 14 18 20 18 20 21 19 19 20 19 19 19 19 18 17 16 14 14 10 9 10 10 11 9 7
3 2 4 2 2 1 1 2 1 0 4 2 6 7 9 5 4 9 13 16 20 20 19 22 19 18 19 19 19 20 20 19 17 17 15 14 14 13 10 11 10 11 9 9
1 5 2 3 2 2 3 1 1 1 4 7 8 7 7 8 9 10 17 18 20 20 21 18 18 19 19 19 18 19 19 19 17 16 14 14 14 12 10 9 10 11 4 4
4 1 1 2 6 5 1 1 2 2 2 4 6 8 3 6 8 15 18 19 21 21 20 19 18 19 18 18 18 18 17 18 15 13 13 12 13 11 7 6 3 2 7 9
3 1 5 3 5 4 4 4 5 6 5 4 2 12 8 6 16 18 18 18 19 18 18 18 18 18 18 19 19 19 18 15 12 11 10 9 7 3 3 3 3 8 9 9
5 2 5 3 4 1 5 6 5 5 3 7 4 11 1 16 16 17 17 17 18 19 19 17 17 17 19 19 19 19 19 17 4 6 4 3 4 5 5 6 7 12 11 12
1 1 7 7 3 3 6 6 10 8 4 5 13 14 25 19 17 17 15 15 19 16 18 17 17 17 18 18 18 18 18 15 11 6 7 7 6 7 9 9 10 13 12 14
3 4 5 7 16 9 14 15 12 11 12 9 13 8 26 22 17 7 13 18 20 18 19 17 18 17 17 18 17 16 15 15 10 8 9 9 8 10 12 13 13 14 15 14
4 4 3 8 7 8 14 13 15 17 16 16 21 28 25 15 6 10 12 17 18 18 18 18 17 17 17 17 16 15 14 14 12 11 10 9 12 13 14 15 14 16 17 17
6 2 3 8 5 8 8 8 14 6 6 8 8 15 4 9 8 5 10 14 15 16 17 17 17 15 15 16 15 14 13 12 13 12 11 11 12 14 14 15 16 18 17 18
5 3 2 6 6 4 6 4 5 10 6 15 10 11 8 7 5 4 3 10 13 14 16 14 13 13 14 15 14 12 12 12 12 13 13 12 13 14 15 17 17 17 15 18
3 3 1 1 3 10 5 5 5 7 9 14 17 14 8 5 7 2 2 8 8 10 11 11 11 11 12 14 14 13 13 12 13 13 13 13 13 14 16 16 16 15 15 16
4 3 4 2 2 7 4 4 2 4 7 6 8 6 2 4 3 4 4 6 9 7 8 10 10 9 10 12 12 14 14 14 14 13 13 12 12 14 16 15 15 14 15 16
4 3 5 4 4 13 8 7 2 7 9 7 6 6 5 4 6 2 1 3 2 3 5 8 6 8 10 10 10 13 13 15 13 13 13 14 13 15 14 14 13 14 15 15
11 10 6 4 3 12 8 4 8 6 2 7 6 6 6 5 5 3 2 1 3 5 6 7 6 7 7 7 9 11 13 9 11 12 14 14 14 11 11 14 12 12 13 14
5 10 9 14 12 2 12 4 7 0 4 5 5 5 6 5 5 6 4 4 2 3 3 5 5 5 7 8 8 10 8 8 9 11 12 11 12 11 10 11 10 9 9 9
5 6 3 2 8 18 13 10 9 6 7 6 6 8 7 6 6 6 5 4 3 2 2 2 5 5 6 6 7 6 6 6 6 9 8 8 9 8 8 7 6 6 6 6
5 9 6 8 14 13 16 12 12 10 9 8 8 8 9 7 6 7 6 6 5 4 2 2 3 2 3 4 4 5 5 5 6 6 6 6 6 6 7 7 5 5 4 5
7 10 9 10 10 5 4 4 4 9 9 11 10 7 7 7 8 8 6 6 5 5 4 3 2 2 1 2 3 4 4 4 4 5 4 4 4 4 4 5 5 13 10 10
Wind_Direction
43 70 51 21 30 1 274 277 281 292 329 347 285 290 285 286 285 277 242 201 224 245 230 256 270 288 328 316 313 305 307 301 305 299 298 296 287 295 247 236 201 178 199 188
14 89 60 299 217 284 313 309 299 308 354 312 296 292 290 276 249 62 6 328 329 335 330 287 286 329 338 327 315 314 300 290 285 288 279 270 277 287 287 300 217 195 182 177
63 103 223 257 301 1 309 295 344 308 328 285 323 288 350 5 93 196 235 218 244 253 263 321 330 324 314 308 311 302 290 283 276 274 288 286 279 277 278 256 255 198 187 182
61 135 300 280 353 46 298 41 332 308 332 304 12 289 299 35 223 169 29 6 349 349 349 329 314 310 313 311 305 305 312 302 293 291 287 280 274 279 276 280 276 284 190 183
124 69 343 284 55 14 250 316 291 272 267 306 325 56 264 301 12 356 10 3 355 348 330 317 312 309 317 310 304 298 291 289 289 286 273 275 275 273 277 273 277 240 234 180
86 51 301 341 301 239 280 295 298 69 225 358 205 88 280 286 346 345 353 346 344 327 318 309 314 316 310 307 303 295 293 285 284 284 277 271 271 274 272 271 276 276 276 210
169 152 107 307 304 162 15 1 342 355 333 231 157 287 246 290 35 352 306 347 339 330 321 318 317 317 312 310 301 299 293 289 285 286 281 271 272 272 271 273 271 256 232 237
35 319 173 149 43 345 53 73 131 254 297 286 285 233 255 338 109 318 10 339 338 326 319 322 316 315 312 310 308 303 295 289 281 276 273 273 263 262 260 262 264 266 231 206
347 231 115 16 26 325 132 110 50 215 237 316 242 279 290 126 343 20 345 338 335 327 327 319 325 321 314 311 306 298 293 286 279 272 265 270 277 254 258 262 263 266 224 188
13 305 96 133 212 94 50 346 118 38 331 299 284 291 250 340 321 352 341 336 335 330 327 329 324 322 317 312 308 302 295 288 280 271 258 257 259 265 251 257 265 257 92 93
104 216 199 119 201 156 134 181 280 113 188 219 304 266 306 299 353 352 341 344 337 330 329 332 329 322 318 317 315 307 298 287 275 268 253 247 250 255 250 259 248 286 109 110
55 183 265 215 106 69 312 220 171 132 263 244 208 267 269 279 357 354 341 337 335 328 332 332 329 326 329 328 324 319 311 291 265 254 250 243 251 308 24 75 133 80 75 66
181 228 320 331 20 111 232 195 214 100 88 222 154 261 212 337 341 337 339 338 332 335 337 335 335 338 335 332 331 330 327 332 280 260 257 75 65 72 79 73 88 95 93 87
114 244 201 201 193 96 230 201 196 142 162 234 230 278 294 309 321 326 334 332 339 339 339 338 339 340 337 336 337 339 341 347 2 48 80 82 78 84 81 79 81 88 87 89
230 224 214 236 264 265 261 250 237 211 204 189 269 291 290 298 310 298 330 343 341 341 345 344 341 340 340 341 344 345 350 356 3 42 67 72 80 82 83 82 75 80 84 86
194 263 11 293 242 236 259 247 232 234 240 253 263 278 280 285 297 336 352 344 340 341 344 344 341 343 346 347 348 348 355 6 14 31 51 67 75 80 80 81 83 86 84 84
156 217 68 269 341 311 304 229 198 200 186 174 202 234 296 322 323 351 352 343 340 343 345 345 344 346 350 349 349 356 360 11 30 33 42 57 72 79 81 86 84 79 88 88
137 147 109 273 342 353 236 192 183 196 204 210 262 268 277 259 258 95 319 346 342 348 344 347 345 346 355 354 357 3 13 20 34 45 46 50 66 75 81 79 80 87 86 88
126 170 168 148 258 288 290 156 174 163 272 215 225 253 266 322 312 190 334 8 348 351 342 346 344 345 357 4 1 12 19 29 37 42 50 56 63 75 79 80 82 85 88 87
184 74 124 98 187 247 246 153 70 143 296 179 175 214 255 345 2 257 346 11 4 0 348 356 348 351 7 9 11 22 24 31 35 39 46 51 63 73 76 77 78 83 82 82
163 179 199 205 252 282 243 155 194 83 242 170 180 186 184 200 200 241 330 358 358 313 345 356 347 6 3 5 15 39 34 32 28 36 42 48 53 62 68 77 77 83 86 85
168 159 191 172 198 280 144 76 178 212 100 164 186 184 196 222 164 209 203 287 18 358 353 352 2 3 354 1 31 33 39 27 41 48 51 50 51 56 63 71 75 78 83 86
224 195 179 192 212 227 196 216 212 13 167 195 186 194 193 204 198 176 190 168 106 50 3 348 16 10 11 17 30 47 22 30 46 52 53 53 56 56 60 71 74 76 78 85
232 202 235 76 247 236 234 255 249 226 226 200 191 186 185 200 189 178 177 173 153 115 54 4 25 29 23 12 32 28 26 24 52 64 59 60 66 65 57 61 64 74 77 92
195 134 186 262 278 281 264 232 232 231 213 211 196 188 194 194 181 179 187 184 175 160 149 93 77 46 13 11 32 17 26 44 56 52 46 47 49 49 58 57 58 53 42 74
192 179 180 230 217 198 236 182 198 205 212 205 187 199 204 196 179 176 185 183 166 164 160 159 153 125 328 30 21 5 8 70 84 69 60 62 63 51 62 73 63 64 67 79